Location: Newark
(40.7066°N, 111.8219°W)
Time: 01:10:17
(UTC+00:00)

Explorer 11/Cluster Stage 4 - Visible Passes

Search period start: 21 November 2019 00:00
Search period end: 01 December 2019 00:00
Orbit: 467 x 1259 km, 28.8° (Epoch: 20 November)

Date Brightness Start Highest point End Pass type
(mag) Time Alt. Az. Time Alt. Az. Time Alt. Az.
21 Nov 8.4 02:28:12 10° SSW 02:30:49 18° S 02:30:49 18° S visible
22 Nov 8.3 02:17:32 10° SSW 02:20:44 19° SSE 02:20:44 19° SSE visible
23 Nov 8.2 02:06:53 10° SSW 02:10:13 19° SSE 02:10:38 19° SSE visible
24 Nov 8.1 01:56:17 10° SSW 01:59:30 19° SSE 02:00:33 17° SSE visible
25 Nov 8.1 01:45:42 10° SSW 01:48:47 18° SSE 01:50:27 16° SE visible
26 Nov 8.1 01:35:10 10° SW 01:38:04 18° S 01:40:25 13° SE visible
26 Nov 9.1 03:22:23 10° SW 03:22:33 11° SW 03:22:33 11° SW visible
27 Nov 8.1 01:24:39 10° SW 01:27:24 17° S 01:30:22 10° SE visible
27 Nov 9.0 03:12:04 10° SW 03:12:31 12° SW 03:12:31 12° SW visible
28 Nov 8.1 01:14:10 10° SW 01:16:44 16° S 01:19:32 10° SE visible
28 Nov 8.8 03:01:52 10° SW 03:02:32 12° SW 03:02:32 12° SW visible
29 Nov 8.2 01:03:43 10° SW 01:06:04 15° S 01:08:37 10° SE visible
29 Nov 8.8 02:51:50 10° SW 02:52:37 12° SSW 02:52:37 12° SSW visible
30 Nov 8.3 00:53:18 10° SW 00:55:25 14° S 00:57:41 10° SSE visible
30 Nov 8.7 02:42:22 10° SSW 02:42:46 10° SSW 02:42:46 10° SSW visible
